Zurück zum Katalog

STARLINK-35249

AktivKommunikationVLEO
NORAD 65901·PAYLOAD·🇺🇸 United States

Gestartet Oct 7, 2025 von Cape Canaveral Space Force Station

Loading…

Nächste Überflüge (nächste 24 Stunden)

TLE

AktuellSource: CelesTrak SupGP

Epoche: Sep 14, 2026, 15:22 UTC

1 65901C 25224V   26257.64076389  .00014642  00000+0  43273-3 0  2576
2 65901  53.1589 213.1824 0001441  89.2385 161.8360 15.34372568    10

Verfolge STARLINK-35249 in Echtzeit mit AllMySat

Download on the App Store